ON7AMI-5 Weather Reports


time (UTC)temp
C
wind
direction
speed
KPH
gust
KPH
rain 1hr
cm
rain 24hr
cm
rain mn
cm
humidity
%
barometer
mb
20260505041535 11 2 16.1 25.7 0.00 0.00 0.00 98 1012.7
20260505041033 11 2 8.0 19.3 0.00 0.00 0.00 98 1012.7
20260505040533 11 9 8.0 22.5 0.00 0.00 0.00 98 1012.7
20260505040032 11 8 9.7 16.1 0.00 0.00 0.00 98 1012.7
20260505035527 11 353 8.0 16.1 0.00 0.00 0.00 98 1012.7
20260505035033 11 358 9.7 19.3 0.00 0.00 0.00 98 1012.7
20260505034533 11 11 11.3 16.1 0.00 0.00 0.00 98 1012.7
20260505034033 11 9 12.9 19.3 0.00 0.00 0.00 98 1012.6
20260505033533 11 13 8.0 12.9 0.00 0.00 0.00 98 1012.7
20260505033029 11 11 12.9 22.5 0.00 0.00 0.00 97 1012.8
20260505032533 11 357 16.1 19.3 0.00 0.00 0.00 97 1012.8
20260505032032 11 13 8.0 12.9 0.00 0.00 0.00 97 1012.8
20260505031533 11 5 12.9 22.5 0.00 0.00 0.00 97 1012.8
20260505031033 11 11 9.7 12.9 0.00 0.00 0.00 97 1012.9
20260505030533 11 10 16.1 25.7 0.00 0.00 0.00 97 1012.9
20260505030027 11 4 12.9 25.7 0.00 0.00 0.00 97 1012.8
20260505025533 11 23 17.7 22.5 0.00 0.00 0.00 97 1012.8
20260505025033 11 20 14.5 25.7 0.00 0.00 0.00 97 1012.8
20260505024526 11 10 12.9 19.3 0.00 0.00 0.00 97 1012.8
20260505024033 11 25 16.1 22.5 0.00 0.00 0.00 97 1012.8
20260505023533 11 18 8.0 12.9 0.00 0.00 0.00 97 1012.8
20260505023027 11 357 8.0 12.9 0.00 0.00 0.00 97 1012.8
20260505022533 11 9 14.5 22.5 0.00 0.00 0.00 97 1012.8
20260505022033 11 9 9.7 12.9 0.00 0.00 0.00 97 1012.8
20260505021529 11 10 6.4 12.9 0.00 0.00 0.00 97 1012.8
20260505021033 11 19 12.9 19.3 0.00 0.00 0.00 97 1012.8
20260505020533 11 16 12.9 19.3 0.00 0.00 0.00 97 1012.8
20260505020032 11 17 6.4 9.7 0.00 0.00 0.00 97 1012.8
20260505015533 11 16 16.1 22.5 0.00 0.00 0.00 97 1012.8
20260505015033 11 8 12.9 19.3 0.00 0.00 0.00 97 1012.8
20260505014533 11 25 8.0 12.9 0.00 0.00 0.00 97 1012.8
20260505014033 11 11 9.7 16.1 0.00 0.00 0.00 97 1012.8
20260505013533 11 38 12.9 19.3 0.00 0.00 0.00 97 1012.8
20260505013033 11 15 14.5 22.5 0.00 0.00 0.00 97 1012.8
20260505012532 11 26 14.5 22.5 0.00 0.00 0.00 97 1012.8
20260505012033 11 16 19.3 32.2 0.00 0.00 0.00 97 1012.8
20260505011533 11 24 24.1 35.4 0.00 0.00 0.00 97 1012.8
20260505011033 11 24 12.9 32.2 0.00 0.00 0.00 97 1012.9
20260505010533 11 5 14.5 25.7 0.00 0.00 0.00 97 1012.9
20260505010033 11 14 8.0 16.1 0.00 0.00 0.00 97 1013.0
20260505005533 11 14 12.9 19.3 0.00 0.00 0.00 97 1013.1
20260505005033 11 11 16.1 22.5 0.00 0.00 0.00 97 1013.1
20260505004533 11 5 11.3 19.3 0.00 0.00 0.00 97 1013.1
20260505004033 11 14 16.1 22.5 0.00 0.00 0.00 97 1013.2
20260505003533 11 5 16.1 25.7 0.00 0.00 0.00 97 1013.3
20260505003031 11 359 14.5 19.3 0.00 0.00 0.00 97 1013.3
20260505002533 11 2 16.1 29.0 0.00 0.00 0.00 97 1013.3
20260505002027 11 13 14.5 22.5 0.00 0.00 0.00 96 1013.4
20260505001533 11 9 14.5 22.5 0.00 0.00 0.00 96 1013.4
20260505001033 11 10 8.0 12.9 0.00 0.00 0.00 96 1013.4
20260505000533 11 358 14.5 22.5 0.00 0.00 0.00 96 1013.5
20260505000033 11 358 0.0 9.7 0.00 0.00 0.00 96 1013.5
20260504235535 11 14 16.1 25.7 0.00 0.00 0.00 96 1013.5
20260504235035 11 348 8.0 16.1 0.00 0.00 0.00 96 1013.5
20260504234534 11 0 16.1 22.5 0.00 0.00 0.00 96 1013.5
20260504234035 11 4 16.1 25.7 0.00 0.00 0.00 96 1013.6
20260504233535 11 0 16.1 25.7 0.00 0.00 0.00 96 1013.7
20260504233035 11 356 16.1 29.0 0.00 0.00 0.00 96 1013.8
20260504232534 11 348 17.7 25.7 0.00 0.00 0.00 96 1013.7
20260504232032 11 23 9.7 12.9 0.00 0.00 0.00 96 1013.6
20260504231535 11 17 12.9 29.0 0.00 0.00 0.00 96 1013.6
20260504231035 11 0 19.3 29.0 0.00 0.00 0.00 96 1013.6
20260504230528 11 2 17.7 29.0 0.00 0.00 0.00 96 1013.7
20260504230035 12 11 16.1 19.3 0.00 0.00 0.00 96 1013.7
20260504225535 11 1 14.5 19.3 0.00 0.00 0.00 96 1013.8
20260504225035 11 3 9.7 12.9 0.00 0.00 0.00 96 1013.8
20260504224535 12 9 12.9 22.5 0.00 0.00 0.00 96 1013.8
20260504224031 11 11 14.5 25.7 0.00 0.00 0.00 95 1013.9
20260504223528 11 7 11.3 19.3 0.00 0.00 0.00 95 1013.9
20260504223031 11 27 16.1 22.5 0.00 0.00 0.00 95 1014.0
20260504222534 11 10 11.3 19.3 0.00 0.00 0.00 95 1014.0
20260504222028 12 22 17.7 25.7 0.00 0.00 0.00 95 1014.0
20260504221534 12 21 17.7 22.5 0.00 0.00 0.00 95 1014.1
20260504221029 12 354 16.1 29.0 0.00 0.00 0.00 95 1014.1
20260504220531 12 9 16.1 25.7 0.00 0.00 0.00 95 1014.2
20260504220034 12 347 16.1 32.2 0.00 0.00 0.00 95 1014.2
20260504215535 12 3 12.9 19.3 0.00 0.00 0.00 95 1014.3
20260504215035 12 4 9.7 16.1 0.00 0.00 0.00 95 1014.3
20260504214536 12 10 9.7 16.1 0.00 0.00 0.00 95 1014.3
20260504214036 12 0 12.9 19.3 0.00 0.00 0.00 95 1014.3
20260504213535 12 358 8.0 16.1 0.00 0.00 0.00 95 1014.3
20260504213044 12 24 20.9 32.2 0.00 0.00 0.00 95 1014.4
20260504212535 12 3 19.3 35.4 0.00 0.00 0.00 95 1014.4
20260504212035 12 355 14.5 22.5 0.00 0.00 0.00 95 1014.4
20260504211535 12 22 11.3 19.3 0.00 0.00 0.00 94 1014.4
20260504211035 12 18 8.0 12.9 0.00 0.00 0.00 94 1014.4
20260504210535 12 21 12.9 19.3 0.00 0.00 0.00 94 1014.5
20260504210035 12 8 9.7 12.9 0.00 0.00 0.00 94 1014.5
20260504205535 12 3 12.9 22.5 0.00 0.00 0.00 94 1014.4
20260504205036 12 6 8.0 16.1 0.00 0.00 0.00 94 1014.5
20260504204536 12 357 14.5 22.5 0.00 0.00 0.00 94 1014.4
20260504204035 12 22 20.9 29.0 0.00 0.00 0.00 94 1014.4
20260504203535 12 2 9.7 19.3 0.00 0.00 0.00 94 1014.4
20260504203035 12 356 8.0 12.9 0.00 0.00 0.00 94 1014.4
20260504202535 12 14 12.9 22.5 0.00 0.00 0.00 94 1014.4
20260504202036 12 355 14.5 19.3 0.00 0.00 0.00 94 1014.4
20260504201535 12 5 12.9 25.7 0.00 0.00 0.00 94 1014.5
20260504201035 12 7 11.3 19.3 0.00 0.00 0.00 94 1014.4
20260504200535 12 8 3.2 9.7 0.00 0.00 0.00 94 1014.4
20260504200035 12 358 9.7 12.9 0.00 0.00 0.00 94 1014.4
20260504195535 12 6 11.3 22.5 0.00 0.00 0.00 93 1014.4
20260504195036 12 0 8.0 16.1 0.00 0.00 0.00 93 1014.4
20260504194535 13 15 3.2 9.7 0.00 0.00 0.00 93 1014.4
20260504194036 13 6 12.9 16.1 0.00 0.00 0.00 93 1014.3
20260504193535 13 21 16.1 32.2 0.00 0.00 0.00 93 1014.2
20260504193035 13 5 14.5 35.4 0.00 0.00 0.00 93 1014.1
20260504192535 13 9 14.5 22.5 0.00 0.00 0.00 93 1014.1
20260504192035 13 11 9.7 16.1 0.00 0.00 0.00 93 1014.0
20260504191535 13 16 17.7 25.7 0.00 0.00 0.00 93 1014.0
20260504191035 13 11 8.0 16.1 0.00 0.00 0.00 93 1014.0
20260504190535 13 30 14.5 22.5 0.00 0.00 0.00 93 1014.0
20260504190035 13 11 8.0 16.1 0.00 0.00 0.00 93 1014.0
20260504185535 13 7 11.3 16.1 0.00 0.00 0.00 93 1014.0
20260504185035 13 7 12.9 19.3 0.00 0.00 0.00 93 1014.0
20260504184546 13 22 11.3 16.1 0.00 0.00 0.00 93 1014.0
20260504184028 13 11 11.3 22.5 0.00 0.00 0.00 93 1014.0
20260504183535 13 4 6.4 9.7 0.00 0.00 0.00 93 1014.0
20260504183029 13 8 11.3 19.3 0.00 0.00 0.00 92 1013.9
20260504182529 13 2 8.0 16.1 0.00 0.00 0.00 92 1013.9
20260504182036 13 5 20.9 32.2 0.00 0.00 0.00 92 1013.8
20260504181535 14 13 19.3 38.6 0.00 0.00 0.00 92 1013.8
20260504181028 14 17 9.7 16.1 0.00 0.00 0.00 92 1013.8
20260504180536 14 352 17.7 32.2 0.00 0.00 0.00 92 1013.8
20260504180035 14 7 22.5 35.4 0.00 0.00 0.00 92 1013.7
20260504175535 15 29 19.3 32.2 0.00 0.00 0.00 92 1013.7
20260504175245 15 24 17.7 25.7 0.00 0.00 0.00 92 1013.6
20260504174744 15 14 16.1 25.7 0.00 0.00 0.00 92 1013.4
20260504174241 16 3 14.5 19.3 0.00 0.00 0.00 92 1013.3
20260504173746 16 21 19.3 32.2 0.00 0.00 0.00 92 1013.3
20260504173245 16 18 25.7 38.6 0.00 0.00 0.00 92 1013.3
20260504172744 16 33 25.7 32.2 0.00 0.00 0.00 92 1013.4
20260504172035 17 12 16.1 25.7 0.00 0.00 0.00 92 1013.5
20260504171535 17 356 11.3 16.1 0.00 0.00 0.00 92 1013.5
20260504171035 17 4 9.7 19.3 0.00 0.00 0.00 92 1013.4
20260504170533 17 13 24.1 32.2 0.00 0.00 0.00 92 1013.4
20260504151035 19 34 11.3 16.1 0.00 1.12 0.00 93 1013.4
20260504150535 19 28 11.3 19.3 0.00 1.12 0.00 93 1013.6
20260504141036 18 58 3.2 9.7 0.00 1.12 0.00 94 1013.9
20260504140536 18 27 8.0 16.1 0.00 1.12 0.00 94 1013.9
20260504130535 20 311 0.0 3.2 0.00 1.12 0.00 94 1014.3
20260504110535 20 144 4.8 9.7 0.00 1.12 0.00 98 1014.7
20260504100528 18 185 1.6 3.2 0.00 1.12 0.00 100 1014.9
20260504081536 16 275 0.0 3.2 0.00 1.14 0.00 100 1014.6
20260504081036 16 275 4.8 6.4 0.00 1.14 0.00 100 1014.6
20260504080535 16 275 6.4 9.7 0.00 1.14 0.00 100 1014.6
20260504050535 12 157 0.0 0.0 0.00 1.37 0.00 100 1013.3
20260504045528 12 157 0.0 3.2 0.00 1.37 0.00 100 1013.4